Flag for Turkey Weather past 2 weeks in Ankara, Turkey

Now
81 °F

Scattered clouds.


Feels Like: 80 °F
Forecast: 58 / 85 °F
Wind: 6 mph from North

Location: Ankara / Esenboga

Current Time: Jul 6, 2015 at 2:22:18 PM

Latest Report: Jul 6, 2015 at 1:50 PM


Visibility: N/A

Pressure: 30.01 "Hg (27.18 "Hg at 871m altitude)

Humidity: 37%

Dew point: 52 °F

Location of AnkaraLocation

Historic Weather in Ankara — Graph

°F

Ankara temperature yesterday

Maximum temperature yesterday: 84 °F (at 5:20 PM)
Minimum temperature yesterday: 57 °F (at 5:20 AM)
Average temperature yesterday: 71 °F

Past Weeks' High & Low Weather Summary

 TemperatureHumidityPressure
High84 °F (Jul 5, 5:20 PM)100% (Jun 29, 5:20 AM)30.15 "Hg (Jun 29, 5:20 AM)
Low50 °F (Jun 25, 3:50 AM)26% (Jul 5, 3:50 PM)29.77 "Hg (Jun 27, 2:20 PM)
Average65 °F66%29.99 "Hg
* Reported Jun 21 12:20 PM — Jul 6 12:50 PM, Ankara, Weather by CustomWeather, © 2015

Note: Actual official high and low records may vary slightly from our data, if they occured in-between our weather recording intervals... More about our weather records

Advertising

Ankara weather history for previous 24 hours

 ConditionsComfort  
Time TempWeatherWind HumidityBarometerVisibility
12:50 PM
Mon, Jul 6
79 °FScattered clouds.6 mph42%30.01 "HgN/A
12:20 PM79 °FScattered clouds.7 mph42%30.01 "HgN/A
11:50 AM77 °FScattered clouds.7 mph47%30.04 "HgN/A
11:20 AM77 °FScattered clouds.8 mph51%30.04 "HgN/A
10:50 AM77 °FPassing clouds.8 mph47%30.04 "HgN/A
10:20 AM75 °FPassing clouds.8 mph50%30.04 "HgN/A
9:50 AM73 °FPassing clouds.9 mph53%30.04 "HgN/A
9:20 AM73 °FPassing clouds.12 mph57%30.04 "HgN/A
8:50 AM72 °FPassing clouds.9 mph57%30.04 "HgN/A
8:20 AM70 °FPassing clouds.9 mph60%30.04 "HgN/A
7:50 AM68 °FPassing clouds.9 mph69%30.04 "HgN/A
7:20 AM66 °FPassing clouds.12 mph73%30.04 "HgN/A
6:50 AM63 °FPassing clouds.5 mph77%30.04 "HgN/A
6:20 AM61 °FClear.8 mph83%30.04 "Hg10 mi
5:50 AM61 °FClear.6 mph83%30.04 "Hg10 mi
5:20 AM61 °FPassing clouds.5 mph77%30.04 "HgN/A
4:50 AM61 °FClear.6 mph83%30.04 "Hg10 mi
4:20 AM61 °FClear.7 mph83%30.04 "Hg10 mi
3:50 AM63 °FPassing clouds.5 mph77%30.04 "HgN/A
3:20 AM64 °FClear.7 mph73%30.04 "Hg10 mi
2:50 AM64 °FClear.10 mph73%30.04 "Hg10 mi
2:20 AM64 °FClear.13 mph73%30.04 "Hg10 mi
1:50 AM66 °FClear.13 mph73%30.04 "Hg10 mi
1:20 AM66 °FClear.8 mph73%30.04 "Hg10 mi
12:50 AM68 °FClear.10 mph64%30.04 "Hg10 mi
11:50 PM
Sun, Jul 5
70 °FClear.13 mph60%30.04 "Hg10 mi
11:20 PM70 °FClear.10 mph64%30.04 "Hg10 mi
10:50 PM70 °FClear.8 mph64%30.04 "Hg10 mi
10:20 PM70 °FClear.8 mph60%30.04 "Hg10 mi
9:50 PM72 °FClear.7 mph57%30.01 "Hg10 mi
9:20 PM73 °FClear.7 mph50%30.01 "Hg10 mi
8:50 PM73 °FSunny.10 mph47%30.01 "Hg10 mi
8:20 PM75 °FPassing clouds.9 mph50%30.01 "HgN/A
7:50 PM79 °FPassing clouds.7 mph32%30.01 "HgN/A
7:20 PM81 °FPassing clouds.6 mph32%30.01 "HgN/A
6:50 PM82 °FPassing clouds.5 mph26%30.01 "HgN/A
6:20 PM82 °FPassing clouds.5 mph26%30.01 "HgN/A
5:50 PM81 °FScattered clouds.8 mph28%30.01 "HgN/A
5:20 PM84 °FScattered clouds.3 mph27%30.01 "HgN/A
4:50 PM82 °FScattered clouds.7 mph28%30.01 "HgN/A
4:20 PM82 °FScattered clouds.3 mph28%30.01 "HgN/A
3:50 PM82 °FScattered clouds.7 mph26%30.01 "HgN/A
3:20 PM82 °FScattered clouds.5 mph28%30.01 "HgN/A
2:50 PM82 °FScattered clouds.6 mph28%30.04 "HgN/A
2:20 PM81 °FScattered clouds.5 mph28%30.04 "HgN/A
Weather by CustomWeather, © 2015

See weather overviewHow to use our weather pages